GFSSGP_500_spd_087.txt.gz
Wind_Speed
37 37 37 41 36 36 31 21 19 21 20 29 27 30 36 37 38 36 30 24 29 20 15 15 15 13 12 11 8 5 5 6 6 6 5 5 5 6 5 5 6 8 9 10 11 13 14 16 17
38 40 39 41 41 39 33 22 33 30 30 32 33 30 42 41 46 40 39 24 14 19 19 19 19 16 14 13 11 7 5 7 7 7 7 7 6 5 4 4 5 6 7 9 11 13 15 17 18
42 40 40 42 41 37 32 32 42 35 38 39 38 41 45 46 44 45 37 31 19 21 20 23 22 20 17 17 14 10 8 7 8 9 7 6 5 5 5 4 4 4 7 8 11 14 16 16 17
39 42 41 42 40 34 34 44 45 37 39 41 39 43 52 49 50 51 44 35 26 24 25 26 26 23 21 19 18 15 12 10 11 10 9 6 4 4 6 6 5 4 7 9 11 15 17 18 18
38 38 38 43 39 37 38 38 36 45 38 41 41 38 52 56 53 60 58 44 31 26 29 29 28 26 24 21 21 19 15 13 13 13 12 9 7 7 7 6 4 3 6 7 10 13 16 18 18
34 36 38 38 39 36 37 41 43 46 44 30 30 31 50 56 58 54 53 49 44 34 28 30 31 30 27 24 23 21 19 15 14 14 13 12 11 10 8 6 5 5 5 5 7 11 13 16 17
28 31 32 35 38 37 31 35 45 40 38 36 26 32 42 48 58 56 52 47 50 41 39 33 33 33 31 28 26 24 23 20 18 18 16 15 14 14 12 9 8 7 8 5 7 9 11 13 15
28 30 29 29 29 30 31 29 33 40 42 36 48 43 46 51 51 53 52 49 47 48 43 39 38 36 35 33 30 29 26 23 23 21 20 19 18 15 14 13 12 11 8 8 8 10 11 13 15
32 32 29 27 28 25 26 27 28 34 39 35 35 38 35 45 57 54 46 43 45 49 47 43 45 40 39 38 35 32 27 24 24 24 23 22 21 19 17 16 16 15 12 11 9 9 9 13 15
34 33 31 29 29 29 28 27 17 27 33 40 37 45 47 47 57 60 50 51 41 51 49 52 50 45 44 42 39 37 32 30 27 27 26 26 24 23 22 20 18 18 16 14 12 12 8 9 12
35 35 34 34 34 33 33 33 30 31 32 37 44 40 33 37 49 56 54 47 45 49 56 56 53 50 47 46 44 42 39 35 31 29 28 27 28 26 25 23 21 20 18 17 13 13 12 10 11
36 37 39 38 38 39 38 38 40 38 39 35 42 46 44 33 41 46 45 46 46 42 51 57 55 56 52 52 53 49 46 40 35 32 33 31 30 29 28 27 25 22 20 20 15 14 14 13 21
35 37 38 39 40 42 42 45 45 42 43 44 51 50 49 40 37 38 36 30 41 44 49 57 58 58 56 56 54 57 54 44 40 37 37 35 33 33 31 30 28 26 24 22 18 14 16 18 21
35 38 40 41 42 44 46 46 42 43 42 50 53 56 51 43 41 41 41 32 36 45 51 49 57 60 58 63 59 55 50 48 48 42 40 41 38 37 34 33 30 29 27 25 23 17 16 18 10
35 38 38 39 41 43 40 44 44 44 40 43 51 56 55 52 44 44 46 38 34 44 53 59 62 63 66 69 70 61 61 56 51 44 45 45 44 40 38 38 36 33 31 28 28 16 15 12 9
30 31 34 32 34 37 39 46 42 44 47 46 47 47 49 51 53 46 46 46 34 39 48 60 65 67 65 68 71 69 58 66 55 48 50 48 49 45 44 43 39 37 36 33 32 21 9 13 12
30 30 31 28 31 34 26 43 42 40 47 50 50 50 50 51 52 53 47 47 38 36 43 53 66 72 70 70 70 75 71 79 58 57 58 55 54 50 48 48 43 43 40 36 36 28 18 14 14
31 33 33 34 32 26 25 33 36 40 43 46 46 46 47 51 54 53 52 38 40 38 34 45 60 69 78 74 74 79 75 79 81 68 59 67 60 55 51 53 48 47 43 42 39 33 22 18 19
32 35 38 36 38 36 39 37 41 43 50 47 47 46 49 50 49 53 54 39 43 48 43 39 48 64 70 86 83 80 89 76 84 67 67 71 65 59 57 59 52 50 48 46 44 39 33 25 20
30 33 34 33 32 33 44 47 47 48 48 51 49 45 43 43 44 51 52 44 41 45 45 39 50 59 64 63 86 90 90 71 87 75 69 69 66 67 64 62 55 54 53 49 49 42 38 26 25
29 32 34 37 36 40 39 50 53 54 56 57 54 52 45 46 48 52 54 47 40 42 43 44 43 54 58 66 58 88 87 82 68 74 71 77 74 71 68 64 60 61 59 54 52 45 38 30 24
32 29 35 39 42 44 39 49 45 45 49 50 47 43 44 43 48 49 51 49 44 40 43 42 43 49 52 55 57 56 74 92 77 59 82 78 78 70 63 67 67 65 64 58 50 46 40 40 26
36 30 34 38 43 45 41 42 45 38 40 31 25 32 38 37 37 43 49 52 48 43 41 39 44 47 51 52 53 56 53 64 88 88 67 86 81 74 71 74 74 72 67 64 52 38 40 37 32
29 36 42 41 39 48 37 28 41 25 23 30 26 28 30 37 40 43 40 38 45 47 44 42 42 48 52 54 54 56 55 51 60 80 95 74 74 77 78 73 68 71 65 69 61 42 44 41 43
31 32 42 46 46 50 36 33 40 27 32 32 36 35 34 45 49 46 39 34 37 43 44 46 43 46 49 51 50 53 56 53 56 56 79 85 70 68 87 79 74 69 65 68 62 49 48 46 33
37 39 35 48 50 48 43 49 41 32 33 30 33 22 27 35 47 50 38 36 37 39 45 46 45 43 48 48 50 51 53 53 54 55 50 78 78 79 70 90 76 78 72 71 69 54 48 50 44
39 39 44 43 50 49 48 44 39 32 35 42 43 21 25 35 35 38 42 45 41 38 36 41 44 45 47 51 50 51 52 53 51 50 48 50 68 76 63 57 63 77 71 66 64 62 50 58 52
44 42 40 42 51 51 49 53 47 42 38 31 33 34 28 33 35 38 39 38 38 38 37 37 40 40 42 47 46 48 51 53 53 53 49 45 44 55 87 79 66 65 66 75 65 63 59 39 38
36 47 51 49 53 55 60 48 50 33 38 38 39 36 38 32 40 40 35 35 36 39 39 37 40 41 39 40 43 42 46 50 52 53 51 48 50 42 43 63 74 70 57 39 51 48 52 42 36
41 41 40 46 48 46 47 53 48 30 31 33 37 37 34 37 40 37 39 39 38 36 35 33 36 40 39 40 43 44 44 46 46 49 53 52 51 47 43 40 49 59 67 71 43 34 35 44 34

GFSSGP_500_spd_093.txt.gz
Wind_Speed
38 36 35 32 34 33 27 26 27 28 35 36 34 30 30 25 24 23 24 21 21 21 22 24 21 15 11 12 12 13 13 7 5 7 8 10 11 12 11 10 10 9 7 8 9 9 10 11 11
41 38 37 36 35 34 29 32 29 32 36 38 41 37 32 31 28 28 27 28 26 24 25 25 22 14 14 11 13 13 14 13 9 6 8 10 12 12 8 8 9 9 7 9 9 10 11 13 14
43 42 42 39 39 35 33 36 39 36 39 42 42 43 39 35 34 33 32 33 31 27 25 22 23 22 20 17 14 14 14 13 12 11 9 9 10 11 9 10 9 9 9 8 8 10 12 13 13
44 44 44 44 40 37 34 40 36 40 43 45 44 47 47 46 43 39 37 36 36 33 31 32 32 30 28 24 19 17 14 12 14 12 11 11 11 11 10 9 8 8 8 9 9 10 12 13 14
38 44 44 43 41 37 36 39 44 41 48 48 49 51 51 49 48 48 46 43 38 37 35 33 33 31 28 25 22 19 17 14 15 14 12 12 12 10 10 9 8 8 9 10 9 11 13 12 14
39 40 42 37 32 33 36 39 45 44 42 54 53 53 54 53 50 51 50 48 43 39 38 37 36 33 31 29 26 23 21 17 16 16 15 14 14 13 12 10 9 9 10 9 12 11 13 13 12
36 39 41 39 36 34 31 37 43 46 50 38 54 56 56 59 55 53 50 51 47 40 38 39 38 37 36 33 34 28 26 22 19 18 17 17 17 17 17 14 11 10 11 11 11 11 13 13 10
32 36 37 38 35 31 33 38 42 46 48 45 50 51 58 58 54 54 55 53 51 48 39 39 41 43 44 45 40 36 30 27 23 22 21 21 20 20 19 16 13 12 12 12 13 13 11 12 9
31 32 28 26 28 24 35 41 44 46 46 48 48 45 45 53 57 57 56 58 52 46 46 32 36 43 47 43 42 38 34 30 28 25 25 25 24 23 21 19 17 15 14 14 15 14 12 12 9
29 27 26 29 30 27 34 35 41 43 46 47 49 52 43 49 54 53 53 54 56 47 39 40 34 32 36 46 43 37 36 33 31 29 28 29 27 26 25 24 22 19 19 17 15 15 14 14 14
30 28 31 30 32 30 34 35 38 39 41 44 48 51 49 48 47 47 49 49 49 48 41 48 42 41 40 40 49 50 44 38 37 34 32 32 31 28 28 28 25 22 22 20 18 17 15 16 16
32 32 33 32 35 35 35 37 38 39 36 40 39 41 45 46 45 48 52 45 43 40 37 38 41 41 43 44 42 49 52 48 42 39 37 35 35 33 32 32 29 27 25 23 20 19 18 16 16
26 28 32 31 34 36 35 36 37 38 40 41 42 41 43 45 44 47 45 45 44 39 37 36 37 39 45 45 48 45 50 52 49 47 43 40 39 38 38 36 33 31 30 28 24 22 20 18 17
32 31 33 34 33 34 34 31 34 32 38 42 42 42 43 46 47 50 46 44 40 39 38 34 35 37 43 48 42 47 46 49 53 53 49 45 48 42 42 41 39 35 34 32 30 27 24 21 18
29 31 31 32 33 35 39 41 38 30 35 40 39 41 43 46 48 53 48 46 42 42 42 36 38 41 37 45 53 47 46 57 53 56 54 50 47 45 47 44 44 40 40 37 34 31 30 26 23
30 32 29 28 32 34 41 43 40 42 44 46 49 51 51 51 52 53 54 53 47 46 46 44 42 44 43 38 45 55 51 52 65 56 60 55 59 60 51 46 46 48 44 41 39 36 34 31 29
33 36 36 34 35 39 41 40 38 39 43 43 44 46 48 51 56 56 57 57 51 49 47 47 43 42 45 43 42 47 56 59 56 49 66 67 60 56 52 50 52 52 46 48 43 41 39 36 35
33 34 35 37 36 41 42 43 42 41 41 41 40 39 45 51 55 59 64 65 66 57 52 47 44 45 44 47 47 46 50 60 64 74 65 67 66 64 66 72 58 56 50 51 48 47 44 44 39
29 32 32 31 32 37 39 41 39 40 41 41 42 42 43 44 50 55 59 60 62 64 58 54 49 44 45 51 51 51 51 53 64 71 63 49 59 66 68 69 65 62 56 57 54 56 51 47 46
30 32 30 30 31 37 35 38 39 39 41 42 45 45 45 47 47 46 48 53 57 57 56 54 51 48 47 53 55 54 55 53 53 66 70 68 62 67 73 67 74 64 61 62 56 61 56 54 47
32 35 34 36 34 39 40 42 35 36 38 39 40 42 43 42 42 43 45 47 48 47 45 48 50 48 46 52 54 56 54 54 52 57 67 72 75 74 76 78 74 75 70 61 59 61 59 60 55
36 35 40 41 42 42 41 47 38 35 33 36 37 40 44 42 44 46 45 48 50 50 50 50 50 48 50 47 51 55 56 54 54 55 57 63 69 72 74 70 85 72 69 69 62 64 59 64 58
39 37 41 43 47 48 46 48 47 40 33 32 35 39 39 43 46 50 47 46 50 53 56 54 51 51 56 55 51 52 54 53 53 59 59 59 64 71 74 66 62 38 51 62 68 65 66 68 60
40 44 45 46 48 56 47 49 54 45 39 34 35 36 40 44 44 45 46 50 51 54 57 58 53 55 56 58 50 54 57 55 53 55 60 60 59 64 62 59 55 49 45 53 67 72 69 65 66
41 44 46 50 50 56 51 56 57 50 40 38 38 40 41 44 44 37 39 40 40 46 48 57 53 49 48 45 48 52 57 59 56 55 58 62 58 54 58 56 51 50 56 50 58 75 74 75 79
35 38 42 51 54 56 52 57 53 50 47 47 42 41 41 43 43 39 35 37 38 39 46 50 48 37 38 41 36 38 52 58 59 58 57 57 57 51 49 51 54 53 52 47 42 53 70 75 71
38 41 46 50 51 56 56 56 54 56 58 53 47 44 47 44 49 46 37 37 41 38 48 52 45 44 41 39 43 36 40 54 59 59 57 53 50 49 48 49 51 55 52 44 37 46 65 73 74
44 48 51 50 56 60 57 57 57 59 58 54 54 55 58 58 53 42 40 36 33 34 52 56 49 47 46 43 43 42 39 43 56 60 59 57 55 52 48 48 49 49 52 46 40 40 40 57 73
51 54 50 50 55 58 60 59 59 56 54 54 54 55 43 39 40 40 41 36 35 33 31 52 55 52 48 48 45 45 44 42 45 56 58 56 55 53 50 49 49 48 47 49 46 42 37 43 53
44 44 44 44 45 48 52 60 56 52 53 51 50 46 45 43 43 40 37 38 32 30 33 32 49 50 45 45 43 36 37 40 41 43 47 48 47 48 47 47 48 47 48 47 48 47 41 42 44

GFSSGP_500_spd_096.txt.gz
Wind_Speed
28 29 26 26 26 27 30 27 31 34 34 36 36 33 33 32 29 24 20 19 16 14 13 12 17 17 12 11 11 10 11 10 9 9 9 10 11 13 12 11 11 11 10 12 11 12 12 13 13
34 36 34 31 30 26 31 31 31 36 36 36 39 36 36 35 33 32 28 26 23 20 18 17 15 11 6 9 13 13 12 12 10 8 7 7 10 12 12 10 9 9 9 10 10 11 12 13 13
37 38 40 38 36 29 31 37 38 39 38 39 37 41 40 38 36 34 32 29 27 25 23 21 19 16 20 20 21 17 13 14 11 10 7 7 7 9 10 9 8 7 8 9 9 10 12 13 12
42 42 41 38 38 35 33 37 35 42 43 40 41 42 44 42 39 35 32 31 31 30 28 24 25 25 23 25 21 18 16 14 13 11 11 10 8 9 10 8 7 7 6 8 8 10 12 15 15
45 42 43 41 35 35 37 39 38 38 38 46 46 44 44 46 46 43 38 36 37 35 32 30 28 26 27 27 25 21 19 16 16 15 13 12 11 10 9 8 6 6 7 8 9 12 13 15 14
40 45 47 41 35 33 37 43 41 39 43 40 45 49 48 47 49 47 44 40 37 35 32 32 32 29 29 31 30 26 19 20 20 19 17 15 13 13 11 11 10 9 8 8 10 10 13 16 15
42 40 43 40 35 32 33 38 44 43 48 47 46 47 47 45 49 49 50 45 43 42 38 33 33 32 31 31 33 31 30 31 26 23 21 18 15 14 13 14 12 12 10 10 9 10 12 14 14
40 41 41 39 36 31 34 37 40 46 46 51 47 48 50 42 49 51 53 51 48 45 41 38 40 37 36 36 36 36 36 35 30 27 24 22 20 17 16 15 15 13 12 12 11 12 13 13 15
34 35 33 32 33 30 36 43 44 46 44 48 50 52 52 49 51 52 51 53 54 50 45 42 40 40 39 40 41 38 34 34 32 29 28 24 24 21 19 17 17 16 15 15 13 14 15 13 14
29 28 28 29 33 33 38 44 45 48 48 47 47 50 49 49 48 50 49 49 49 50 48 45 43 40 39 37 43 40 37 32 30 29 28 29 27 26 24 21 20 19 19 17 15 15 16 16 14
26 26 29 30 30 32 36 36 40 45 45 45 46 47 49 48 49 51 50 46 51 52 49 49 48 45 39 40 36 32 40 36 31 30 30 32 31 29 28 26 24 23 23 20 17 16 17 18 16
28 29 30 29 31 31 33 34 34 37 36 41 43 43 45 49 48 47 48 47 46 38 37 46 45 45 40 44 39 39 39 41 44 42 35 36 36 33 33 32 30 28 27 25 21 18 18 18 18
27 27 28 28 31 31 31 32 34 36 38 38 40 42 43 44 45 46 45 46 47 37 28 33 40 41 38 43 46 45 43 39 39 44 45 43 40 38 38 37 35 33 31 30 26 22 20 20 20
29 30 33 32 31 35 35 34 38 37 40 39 40 41 42 43 44 45 45 46 46 41 32 28 29 34 36 39 42 44 49 39 39 44 48 49 49 46 48 38 40 37 37 36 33 28 23 25 24
30 31 30 31 31 34 38 36 37 40 42 42 43 43 42 43 46 47 48 50 50 48 40 33 33 35 37 40 40 39 37 48 44 54 56 51 52 53 55 52 44 40 42 41 38 35 29 27 29
31 33 32 33 35 34 40 38 34 42 44 45 45 46 47 46 50 52 53 55 55 55 49 42 40 41 41 43 43 42 38 40 53 63 54 59 50 55 58 59 50 51 47 45 43 41 36 33 30
34 38 38 37 38 39 42 43 40 39 42 42 43 46 49 48 52 54 55 55 57 58 55 50 43 43 43 46 48 46 46 45 47 59 58 55 56 61 64 63 58 56 49 49 47 46 41 40 39
36 34 33 32 33 38 40 40 43 43 41 40 38 40 43 43 45 51 55 58 57 59 59 58 53 46 46 47 48 52 50 50 50 51 60 63 68 70 68 66 62 55 56 53 51 52 49 46 46
29 29 29 28 27 36 32 34 36 37 37 39 44 45 44 43 42 44 48 51 54 56 58 58 59 53 50 50 49 50 53 52 56 56 57 60 76 75 60 68 67 62 60 66 54 57 55 53 52
31 31 28 29 29 40 31 35 34 34 33 34 36 38 39 41 45 47 47 47 48 50 50 54 56 57 54 52 51 55 55 58 55 59 59 57 60 63 60 55 62 67 64 64 60 62 63 59 56
33 33 34 38 35 41 39 43 34 36 36 35 37 36 37 39 39 41 44 45 48 51 51 51 50 48 49 49 48 51 57 60 62 58 59 56 56 59 63 68 61 53 63 67 64 68 69 64 60
37 35 41 40 43 43 41 52 37 35 38 36 36 39 41 43 42 41 42 44 45 46 48 50 51 50 48 45 46 46 55 61 62 62 62 61 57 57 61 61 54 51 50 53 62 64 66 70 64
39 40 43 46 48 51 47 48 51 41 38 32 34 41 45 45 45 46 46 46 45 45 47 48 50 51 52 53 52 53 52 56 61 62 63 62 59 56 55 57 56 53 49 51 49 43 50 68 70
43 44 46 48 50 55 48 49 54 48 43 37 36 41 46 46 46 46 44 47 48 47 46 47 48 49 52 54 54 54 55 57 55 53 60 62 61 61 60 58 55 55 57 54 54 61 46 59 52
42 43 47 50 50 53 47 54 54 51 46 44 43 40 40 43 46 46 48 44 45 47 48 49 48 54 57 61 61 59 59 60 58 52 59 63 59 59 60 60 57 55 54 55 52 46 44 73 63
40 40 45 51 52 51 50 56 52 52 49 47 45 44 43 44 48 48 47 48 43 42 46 45 46 52 54 52 53 54 53 51 50 52 58 61 61 58 59 61 60 54 50 51 51 50 45 43 59
41 40 41 48 51 54 53 55 56 54 53 53 51 51 51 51 48 50 48 47 49 46 44 48 50 51 43 41 50 46 47 47 48 51 54 59 61 61 60 58 55 52 47 45 45 47 46 45 43
46 48 49 49 52 57 53 54 52 53 55 54 52 52 52 53 53 51 51 51 53 57 50 45 43 41 40 47 49 49 48 52 51 48 45 51 58 62 61 58 53 48 46 45 44 45 48 49 47
43 47 50 51 56 58 57 56 53 54 52 52 55 58 60 63 60 57 55 54 51 46 45 40 35 34 47 55 54 56 55 51 45 48 47 46 46 52 57 58 54 51 49 47 47 46 45 46 49
41 40 43 46 48 49 51 54 50 52 52 56 56 56 56 54 50 52 47 38 39 40 44 35 33 35 33 47 60 61 59 56 48 45 46 44 43 43 46 52 54 53 49 49 47 47 47 47 49

GFSSGP_500_spd_102.txt.gz
Wind_Speed
25 25 24 24 26 27 28 32 32 29 32 29 28 29 28 27 26 23 17 18 17 15 9 7 9 6 3 3 2 3 3 4 5 4 5 7 9 10 10 8 5 5 4 5 7 8 11 13 14
24 27 26 26 25 25 24 32 32 32 33 31 31 32 33 34 30 29 25 23 23 22 21 15 12 11 8 9 9 6 7 7 7 4 3 4 6 7 7 6 4 3 3 5 7 8 10 12 12
28 25 28 31 30 25 23 29 29 31 35 34 33 34 35 36 35 33 30 28 27 26 25 22 17 15 14 12 13 11 9 9 9 9 6 5 4 6 6 5 4 3 3 5 6 7 9 11 12
33 30 28 32 32 35 33 29 29 31 32 36 37 37 36 36 38 37 35 33 32 30 28 28 24 19 16 16 16 17 18 14 10 9 9 7 5 4 4 4 3 4 5 6 7 9 10 10 10
36 36 35 32 34 33 36 34 32 34 35 36 32 42 38 39 39 40 39 37 37 34 32 30 29 26 23 21 19 19 20 18 13 11 9 10 10 8 6 5 4 5 5 6 9 10 11 11 10
39 37 39 35 35 34 37 36 36 36 37 38 38 33 38 41 41 40 40 38 37 37 36 34 32 31 28 26 24 23 21 20 18 16 15 15 14 14 12 10 8 7 6 7 8 10 12 13 12
47 43 43 42 39 39 36 40 40 40 36 41 36 37 39 41 41 42 40 39 38 36 37 38 37 35 32 28 26 26 25 23 22 22 22 22 19 18 17 16 14 11 8 8 9 10 12 13 14
43 44 45 40 40 39 41 39 41 43 46 43 37 41 41 39 37 38 39 40 39 39 41 41 40 38 36 32 31 28 28 27 27 24 24 23 23 20 21 20 18 16 14 11 10 11 11 13 13
39 41 39 38 38 40 44 42 47 45 41 42 44 45 42 39 40 41 41 42 41 41 41 41 41 39 39 37 33 31 29 30 29 29 27 26 22 21 23 23 21 20 18 16 14 13 13 15 15
38 39 38 40 42 43 44 42 42 44 48 47 45 42 43 43 43 41 42 41 40 42 43 43 43 44 40 41 41 40 36 35 32 31 30 30 28 26 27 27 26 25 23 20 19 17 16 15 16
35 34 37 38 39 40 41 41 44 44 45 46 49 46 42 42 42 41 41 40 42 44 45 44 44 44 44 42 40 41 40 41 38 37 36 34 34 33 30 30 30 30 29 27 24 23 20 17 17
31 32 33 35 36 34 35 37 38 41 41 44 45 48 44 42 42 42 41 40 42 44 45 43 41 41 43 43 42 43 41 42 38 39 40 38 37 39 35 33 34 35 34 32 30 27 25 23 21
28 28 29 31 32 32 33 34 37 37 38 39 40 41 44 42 40 39 39 40 41 39 40 41 40 42 39 39 41 40 41 40 36 37 38 41 40 42 44 41 39 37 37 36 34 32 31 29 26
25 27 28 30 32 31 32 32 32 35 37 37 39 40 42 42 41 38 37 37 37 37 37 37 38 39 39 37 38 38 36 42 47 41 41 41 43 43 46 47 47 42 43 42 38 36 35 34 32
26 27 26 27 28 29 30 29 31 36 37 39 39 41 43 43 43 43 43 41 41 40 40 38 39 38 37 36 37 38 36 32 41 42 47 48 45 45 48 50 53 52 45 43 43 42 40 38 36
26 26 26 28 29 29 30 29 33 32 35 37 39 41 43 45 45 46 46 46 46 45 43 45 43 43 41 38 38 41 43 40 38 39 40 32 54 50 49 52 53 55 56 50 48 50 49 43 42
28 28 29 29 30 32 33 34 32 33 35 37 37 38 40 42 44 45 44 45 46 48 48 47 47 46 45 44 42 42 45 44 44 43 47 46 47 50 44 48 54 63 64 61 57 54 50 50 50
36 32 33 32 35 37 38 39 37 37 40 42 42 41 42 43 43 45 45 46 47 47 48 50 49 49 47 47 47 45 43 47 49 48 48 45 47 51 50 59 60 51 60 68 62 57 56 58 56
37 35 33 30 32 35 34 35 34 31 34 34 35 38 38 40 44 47 47 47 48 49 50 51 53 53 54 52 49 50 50 46 52 54 53 55 55 57 57 56 59 63 62 49 58 66 59 60 57
28 27 28 29 34 38 33 35 35 32 31 33 33 33 33 36 39 41 45 49 51 52 53 52 53 53 55 57 56 52 51 48 49 52 56 57 57 58 62 60 60 61 59 52 53 55 58 66 61
30 31 34 35 37 39 35 39 37 34 34 36 35 34 37 39 41 43 43 44 44 45 49 52 53 54 54 54 54 54 52 51 52 54 55 56 56 59 57 56 57 58 60 57 56 56 53 55 61
33 36 37 37 36 39 42 43 37 36 40 35 36 38 40 44 47 46 48 48 46 46 47 49 51 51 54 56 56 57 56 55 54 53 53 54 56 56 57 59 60 56 55 56 55 55 57 56 54
30 38 36 37 38 40 40 45 42 40 39 35 39 42 47 46 50 51 51 51 50 49 50 51 50 52 54 55 57 58 58 58 57 56 55 54 56 55 56 57 57 55 53 58 59 60 58 57 57
36 36 38 40 42 45 39 43 43 41 38 31 35 39 44 47 50 52 54 55 55 53 52 55 57 57 57 58 59 60 60 59 60 60 59 57 56 55 57 57 56 54 56 58 60 61 62 60 57
38 38 40 39 35 40 34 41 42 42 37 35 32 41 45 45 49 51 53 55 57 56 55 55 58 61 62 61 61 62 61 62 61 62 61 61 59 59 57 56 60 62 61 63 63 62 62 61 57
37 36 37 42 40 40 37 43 40 51 46 41 44 39 41 43 45 47 50 53 56 57 56 56 57 59 63 65 65 64 62 61 60 61 62 61 63 58 58 58 62 65 65 66 67 62 57 56 53
35 39 38 47 47 52 47 47 47 45 47 45 41 41 44 43 45 45 45 47 50 55 58 58 57 58 59 61 64 65 65 62 59 59 61 62 63 65 61 63 66 63 61 63 65 63 64 56 50
38 40 44 43 48 49 46 37 35 46 50 53 46 45 45 45 43 44 44 44 46 49 52 55 57 59 61 63 64 65 66 65 62 62 64 66 65 66 66 71 62 67 56 52 51 53 59 59 51
38 42 40 42 44 47 47 40 42 45 50 50 51 50 48 46 46 46 47 49 48 49 50 52 56 60 64 65 67 67 65 65 61 62 61 64 66 63 64 62 61 57 47 50 49 46 52 55 48
37 37 37 41 42 43 46 47 43 50 50 47 48 49 49 47 48 49 49 48 48 50 48 48 47 50 52 57 63 68 66 69 67 61 60 61 64 65 60 60 64 59 57 54 49 44 49 49 45

GFSSGP_500_spd_105.txt.gz
Wind_Speed
25 22 21 21 26 26 24 17 25 22 32 31 25 21 22 22 24 25 15 14 15 12 9 9 10 10 7 7 8 6 4 2 2 3 3 3 3 4 5 6 5 4 4 4 5 5 8 10 10
25 25 24 24 23 24 19 17 22 36 31 26 24 26 27 34 30 27 25 23 21 20 19 15 14 13 12 11 11 11 7 6 6 5 6 6 7 7 5 5 3 3 2 3 4 5 7 8 9
26 22 27 28 26 24 22 32 28 43 33 28 29 28 35 40 29 33 26 27 26 25 24 22 19 16 16 14 13 13 13 9 10 8 7 7 7 8 7 5 3 2 2 3 4 5 7 7 8
33 28 28 29 28 26 22 27 37 32 34 32 35 30 33 36 35 36 33 33 30 30 27 26 25 21 19 18 17 15 17 17 14 13 12 9 9 9 7 7 5 4 5 6 7 6 7 8 7
36 36 34 31 28 25 40 42 29 29 35 32 30 30 37 37 35 35 35 36 35 34 32 30 29 27 25 23 23 21 19 18 17 15 15 14 11 10 10 10 9 7 7 8 10 10 10 9 8
41 39 36 38 33 34 38 38 37 34 36 35 29 35 38 34 36 36 36 35 35 35 35 33 33 31 30 28 28 26 23 22 20 18 16 17 18 17 16 14 13 12 10 10 11 12 12 12 11
42 44 40 39 36 41 39 37 38 34 39 38 43 32 39 44 36 33 34 35 38 39 36 36 36 35 32 31 31 30 28 27 24 24 23 21 20 21 20 18 17 16 14 12 13 12 13 13 13
45 47 47 44 43 44 44 43 39 42 40 49 38 34 39 55 31 35 36 37 37 38 38 35 35 34 33 33 32 32 31 31 29 27 26 25 24 24 22 21 21 20 18 16 15 13 14 14 14
42 44 47 43 46 43 43 52 40 48 40 42 37 41 48 43 35 35 35 36 38 39 39 39 38 37 35 35 33 35 31 31 29 29 29 28 26 27 25 24 23 24 22 20 19 17 17 16 16
40 40 39 39 47 47 44 51 43 50 41 42 41 42 42 42 41 41 40 39 39 41 43 41 38 37 39 35 35 37 37 38 35 35 35 33 34 31 29 28 28 28 28 26 24 22 21 20 18
38 40 40 47 44 45 44 46 41 49 42 42 41 45 45 45 41 40 41 40 42 43 42 41 39 38 35 35 38 41 39 41 40 38 39 37 38 37 35 37 33 31 31 31 29 27 26 24 21
37 36 40 44 45 45 47 48 45 46 44 45 45 44 45 40 37 40 39 38 35 39 44 44 42 40 40 39 38 38 37 37 37 39 39 42 39 41 41 40 40 36 36 35 34 33 30 28 27
31 33 37 38 39 39 39 40 40 43 44 40 46 45 43 43 40 41 40 37 38 44 34 48 39 38 40 40 39 40 40 40 44 42 41 41 42 47 47 45 44 41 41 39 38 38 35 33 31
30 30 30 32 33 34 34 34 36 37 37 39 40 39 39 42 39 38 38 36 39 41 42 43 41 39 41 43 42 40 40 40 41 42 44 43 43 47 47 47 48 48 45 43 45 42 39 38 37
26 25 28 29 30 32 32 31 32 33 36 35 33 36 36 38 37 37 37 37 36 39 41 40 39 39 38 39 39 38 36 37 38 40 41 48 47 44 48 50 48 50 50 51 49 43 44 44 43
27 28 28 28 31 31 32 29 30 35 36 34 35 40 39 38 40 41 39 40 39 38 40 40 41 42 40 40 39 39 39 38 40 40 38 39 42 46 49 56 52 50 52 52 54 52 52 49 50
27 26 26 24 30 30 31 29 31 37 31 35 37 37 38 40 41 42 41 41 42 43 44 44 43 44 44 43 42 42 42 42 43 45 44 42 39 41 47 50 47 53 56 57 53 53 55 54 54
19 24 27 27 27 32 35 35 33 39 37 39 40 39 41 42 43 44 45 45 45 45 46 46 47 47 47 48 49 47 46 45 43 44 47 46 46 48 48 49 51 52 55 48 53 55 59 57 59
34 34 31 29 35 42 40 41 42 44 44 44 43 44 44 44 44 47 48 50 49 52 52 49 49 50 50 51 51 50 52 50 50 49 48 46 45 49 51 53 55 54 53 57 57 56 54 53 54
38 38 37 36 39 43 41 37 37 38 34 34 34 35 33 34 37 40 43 44 45 46 47 50 51 52 53 53 52 52 53 52 53 54 54 51 53 52 55 55 57 58 58 58 56 57 57 55 55
31 32 31 36 36 40 34 36 35 36 34 35 37 33 35 38 39 43 47 46 46 45 44 47 48 49 51 52 53 53 55 54 55 55 53 51 51 53 56 59 59 65 65 65 63 62 61 61 56
33 31 36 38 36 39 36 40 34 37 36 39 39 37 39 41 46 50 52 49 49 51 49 48 49 50 50 51 52 53 55 56 56 56 55 53 53 56 56 59 61 64 63 64 61 60 60 57 60
35 36 39 38 37 40 41 44 38 36 39 39 41 39 41 46 54 50 50 52 52 53 54 53 53 53 53 54 54 55 56 57 56 58 58 58 57 56 58 58 60 61 60 60 58 55 54 51 53
35 39 38 39 39 45 39 42 37 31 32 32 37 40 45 54 50 50 54 54 56 57 57 58 57 54 57 58 59 60 60 59 60 60 59 59 60 58 56 56 58 58 58 58 53 57 56 53 54
36 36 37 37 33 41 28 31 29 26 37 41 35 36 48 50 43 51 51 52 55 56 57 58 59 59 60 62 64 64 64 65 65 64 61 60 60 60 60 61 65 61 57 56 54 54 54 54 54
36 32 33 38 34 34 32 36 32 30 42 48 45 41 45 48 46 45 49 52 52 56 57 58 59 60 60 61 65 67 68 68 68 68 65 63 62 62 68 68 61 55 62 52 54 55 53 52 54
37 38 32 45 46 47 41 40 36 29 32 45 49 45 33 39 40 45 49 51 53 54 57 59 62 62 63 63 64 65 67 70 70 68 68 66 64 66 64 63 71 48 45 57 57 56 54 53 56
39 38 38 39 44 44 34 24 18 28 34 41 51 51 51 44 42 43 47 50 53 53 54 59 61 61 62 63 62 63 65 66 67 68 68 65 65 66 68 69 69 47 44 50 51 53 58 59 58
41 46 44 43 48 49 48 40 30 40 46 44 48 50 54 57 52 47 44 49 52 52 53 55 57 59 59 65 62 64 65 65 67 68 68 69 69 69 69 72 67 42 55 63 64 63 49 60 54
39 38 38 37 39 39 42 43 34 43 43 44 48 51 55 57 51 52 50 51 51 49 52 52 52 54 56 58 61 63 67 69 69 70 70 70 72 72 71 74 69 77 72 61 59 58 61 60 54

GFSSGP_500_spd_108.txt.gz
Wind_Speed
26 24 22 20 24 25 19 17 6 21 30 30 37 22 20 24 23 23 14 8 9 10 9 6 5 7 9 9 6 6 7 7 7 6 6 6 5 4 4 2 1 2 2 3 2 3 3 4 4
27 27 24 23 22 25 18 10 21 27 16 30 24 26 21 29 26 21 21 22 20 19 16 15 14 11 11 11 11 11 9 8 8 8 9 8 8 6 5 6 5 2 2 2 3 4 5 5 5
27 27 26 25 24 23 20 33 26 39 36 34 33 27 31 37 36 26 27 25 25 24 22 20 18 16 15 15 14 13 13 12 13 13 13 12 10 10 8 8 7 6 5 4 3 4 5 5 6
28 27 27 29 26 23 29 35 34 26 29 35 31 31 35 37 33 28 26 31 28 28 26 24 24 21 19 19 17 18 17 16 16 17 15 16 15 15 12 11 11 11 9 7 7 7 7 6 6
31 32 30 28 27 26 13 30 37 38 28 38 39 31 39 37 34 30 32 32 32 29 29 28 27 27 25 22 21 21 21 21 19 18 18 17 15 14 14 14 13 12 12 12 9 9 9 9 8
38 38 37 34 26 28 18 27 40 29 28 28 29 28 38 40 34 27 30 33 34 29 31 31 30 29 29 28 27 25 25 24 23 22 21 21 20 18 18 18 17 16 15 14 12 11 11 11 10
43 40 39 39 37 33 31 32 39 38 37 29 39 32 34 45 41 31 29 29 30 29 30 31 32 33 32 31 29 29 27 24 24 25 25 25 23 23 22 21 20 19 17 18 17 15 14 13 13
45 47 45 43 39 41 40 42 38 40 32 43 47 32 43 49 51 34 32 35 36 34 31 32 33 30 29 31 31 31 30 29 28 28 28 27 26 25 25 24 22 22 21 20 20 19 17 16 15
47 49 47 47 43 42 41 43 43 43 44 43 43 33 44 52 44 37 35 38 38 36 32 33 32 33 35 35 35 34 33 32 30 30 31 29 27 28 28 28 26 24 25 25 23 22 20 20 18
43 46 46 44 39 43 47 50 45 54 47 43 42 39 40 50 42 39 38 41 39 41 38 36 35 36 36 36 34 34 35 34 32 33 33 34 33 33 33 34 32 28 28 28 28 26 24 23 21
38 39 37 34 36 46 50 45 52 53 46 42 39 41 42 48 46 42 39 42 43 42 39 42 39 39 36 35 33 33 33 32 34 38 39 39 37 35 36 35 34 32 34 33 30 30 29 29 26
39 39 39 38 44 51 43 42 48 42 43 45 41 43 43 46 43 37 36 40 42 43 38 33 40 49 35 39 30 35 35 35 40 43 38 39 37 38 39 39 41 38 37 40 36 33 33 34 32
35 33 36 39 44 50 44 45 45 44 45 43 41 44 42 44 44 41 43 43 42 44 42 45 43 35 43 34 34 38 36 37 39 40 39 39 40 40 41 43 42 42 42 41 43 43 38 38 37
29 31 35 38 40 42 40 41 42 40 38 42 39 39 36 37 39 37 36 38 38 43 44 47 49 47 38 26 41 39 40 42 41 42 42 44 43 43 41 44 47 44 45 45 46 47 47 43 42
29 31 31 31 33 33 35 36 35 33 34 36 36 34 34 34 34 34 33 33 34 37 44 43 43 40 45 34 32 38 39 40 40 41 41 41 40 38 38 40 45 48 46 49 49 51 47 47 48
25 26 27 27 29 30 32 29 30 31 34 36 34 34 36 36 36 35 35 35 35 34 39 44 41 42 43 38 39 42 39 38 40 39 41 38 37 38 38 33 38 46 50 52 50 50 54 48 49
27 29 28 26 26 27 34 31 28 32 37 38 34 36 37 38 39 38 39 38 39 40 42 45 45 44 46 42 44 43 43 41 41 43 42 41 38 39 41 41 42 41 46 45 49 48 54 51 51
25 23 22 24 15 30 33 35 30 33 38 38 36 36 38 39 40 42 41 41 43 44 43 45 46 49 50 49 46 48 47 46 45 44 44 44 44 41 44 43 42 47 46 52 49 43 48 51 52
25 23 29 20 16 27 35 37 35 36 37 42 41 40 41 43 44 46 46 48 48 49 48 50 48 49 49 51 50 49 50 49 49 49 49 48 46 45 44 50 51 52 53 53 53 56 54 55 54
30 33 37 33 32 34 38 43 47 41 42 44 43 40 37 37 34 36 39 40 42 44 40 41 41 44 48 47 48 49 49 50 50 50 51 53 53 49 48 51 54 56 57 57 57 57 58 57 56
36 38 38 37 38 42 42 46 39 34 32 35 35 36 35 33 37 36 39 43 48 47 43 34 40 43 43 44 46 47 49 51 51 51 49 50 51 50 49 50 53 58 60 59 60 61 59 59 59
37 34 32 35 37 40 35 42 35 28 28 35 36 38 36 36 40 41 44 52 52 50 46 45 42 46 47 47 47 48 49 50 51 53 52 54 49 50 49 49 52 56 59 60 59 61 59 61 61
31 32 34 34 35 39 38 42 38 32 32 30 30 34 39 40 41 50 53 53 52 48 51 54 52 49 50 52 51 52 53 54 55 55 56 57 55 59 50 48 49 54 58 58 61 61 64 61 61
37 36 37 39 39 45 38 39 36 29 25 24 26 31 35 44 49 51 50 51 50 52 55 56 57 58 57 53 55 57 58 58 60 59 59 58 58 61 58 52 53 58 60 61 61 65 63 62 61
35 36 36 36 33 39 25 28 28 20 29 35 36 39 49 54 52 48 47 43 46 54 57 58 57 57 59 57 55 60 63 63 63 64 64 64 63 62 62 60 62 64 65 66 62 67 64 65 62
33 27 32 36 40 42 36 43 36 35 25 26 28 39 50 54 53 54 48 50 54 54 56 57 56 57 59 60 61 61 63 64 65 66 68 68 67 66 64 64 66 69 66 49 61 51 55 60 60
42 45 43 48 52 51 45 41 44 41 49 44 40 43 50 58 57 49 41 47 50 51 56 57 56 60 61 62 64 65 64 65 67 66 67 68 67 66 65 66 71 68 67 61 57 65 70 45 51
33 33 37 38 44 40 40 31 29 35 40 43 43 49 50 55 55 50 51 52 50 52 58 57 58 60 61 64 66 65 64 66 67 68 68 68 68 66 65 67 70 69 69 68 68 67 61 51 44
29 35 37 40 44 47 46 43 30 41 34 38 41 45 50 55 56 56 62 59 51 54 57 57 60 60 58 58 61 65 67 65 66 64 63 63 65 65 65 67 69 64 69 70 72 69 64 52 50
29 31 35 40 40 40 38 40 31 42 39 41 35 50 55 57 57 61 63 61 55 54 56 58 61 64 60 58 60 58 59 66 67 66 62 63 63 65 65 66 70 67 67 66 72 71 70 63 74

GFSSGP_500_spd_111.txt.gz
Wind_Speed
27 26 26 25 23 21 17 14 13 16 15 22 32 28 31 28 27 20 9 11 7 5 6 5 4 4 7 8 6 6 7 8 7 7 8 7 9 10 9 8 7 6 4 4 4 3 3 2 1
31 29 28 27 23 20 19 27 22 19 24 22 27 25 33 31 31 24 16 18 14 16 12 11 11 9 11 11 11 12 11 9 8 7 8 9 10 11 12 12 12 11 9 7 6 5 4 3 3
34 32 30 29 23 17 30 34 24 24 16 22 23 27 34 31 30 23 22 23 21 21 19 16 14 13 13 15 15 15 14 12 12 13 13 12 12 13 12 12 12 13 13 12 10 9 8 7 6
34 35 33 29 22 19 31 29 29 24 16 26 29 32 34 40 35 26 20 23 26 26 23 22 20 18 16 16 19 18 17 17 16 16 16 15 15 15 14 13 12 12 13 13 14 13 12 10 8
33 35 34 30 26 24 31 8 23 24 32 17 30 39 37 36 36 34 27 26 27 27 27 26 26 24 22 20 20 21 20 21 21 20 18 16 16 15 16 15 15 14 15 15 14 13 13 12 11
35 34 34 30 26 27 34 15 18 26 33 16 20 27 35 44 42 37 33 27 23 29 30 29 27 27 26 25 24 23 23 24 23 22 22 21 19 17 16 17 17 18 19 18 17 16 15 15 13
43 38 34 33 30 28 32 31 28 30 28 27 26 29 40 43 36 28 31 29 22 25 29 29 28 28 27 27 27 26 23 22 23 23 22 21 22 22 22 21 20 20 21 21 21 20 18 17 16
35 39 38 37 34 34 30 32 42 36 38 38 36 37 38 41 44 35 29 33 27 28 30 31 31 29 28 28 27 26 27 27 27 28 26 25 23 23 23 21 22 22 23 24 23 23 23 21 20
45 46 42 42 38 35 39 41 39 42 42 39 40 40 38 41 41 41 35 36 32 25 31 29 30 33 32 31 30 30 30 29 28 28 28 27 27 27 25 25 24 26 26 25 24 25 27 26 24
50 49 44 43 41 42 40 42 43 47 49 46 45 41 45 45 41 41 37 39 38 27 29 36 35 33 33 34 34 32 29 29 30 30 31 28 30 31 32 31 30 29 30 30 27 27 29 27 26
44 44 43 45 44 46 47 47 47 53 52 46 42 36 38 46 48 40 38 38 46 46 38 32 36 40 37 41 36 35 34 33 32 33 32 32 36 38 37 36 35 33 34 32 30 32 33 33 31
39 38 38 37 39 47 52 52 49 49 49 46 44 43 46 44 43 46 38 39 41 48 49 34 39 36 36 26 39 44 39 37 32 34 36 39 41 42 41 38 39 37 37 36 35 37 37 38 38
39 37 36 37 38 43 47 45 40 43 42 42 42 38 43 42 41 42 40 40 42 45 48 47 45 40 36 41 34 39 35 43 34 37 40 44 43 41 41 42 41 40 38 37 39 39 39 41 42
34 37 38 38 40 46 49 43 41 42 42 42 42 39 38 36 38 40 38 37 40 44 47 50 48 40 44 41 36 29 25 31 37 42 42 42 44 41 41 39 41 41 41 41 40 40 41 42 42
31 33 35 37 39 39 42 42 39 37 38 38 40 41 33 33 34 35 35 34 37 43 45 46 46 44 41 36 39 41 38 31 40 38 38 39 42 40 39 37 37 37 38 39 40 39 37 38 41
32 32 30 29 28 30 35 34 30 31 32 33 36 34 31 30 30 33 32 33 37 42 42 44 44 41 36 38 43 41 36 36 39 36 36 40 42 40 40 40 39 38 39 37 31 32 36 41 44
29 26 23 20 22 26 31 29 27 28 31 34 34 35 30 31 34 34 34 34 37 39 41 42 42 42 42 42 41 41 43 44 42 39 38 41 43 45 44 44 44 44 43 42 42 41 40 40 42
27 26 24 22 11 18 28 31 30 28 32 35 36 37 35 34 35 36 36 38 41 42 41 44 44 47 47 47 47 43 46 47 44 42 43 43 43 46 47 46 46 46 46 47 47 47 48 45 45
30 30 30 25 13 20 20 29 34 37 34 38 37 36 38 37 38 39 40 42 42 43 44 46 46 44 51 48 48 46 45 46 46 48 48 48 49 48 47 44 46 46 48 47 48 49 49 51 50
29 26 29 33 28 31 33 36 38 39 36 34 36 42 44 43 43 43 43 45 46 48 50 51 51 50 48 51 50 48 45 44 44 43 42 40 48 50 45 45 46 46 48 50 51 51 52 51 52
33 34 34 39 37 41 40 42 41 42 43 41 37 36 37 38 36 33 35 36 39 44 44 40 33 31 36 40 42 43 41 39 41 39 40 40 48 49 48 43 46 43 49 51 55 53 52 53 50
36 34 37 39 38 42 44 49 45 46 41 34 31 31 32 30 34 35 41 43 46 48 46 42 37 31 38 44 44 45 46 44 44 45 45 45 49 52 47 52 48 36 44 52 53 52 54 54 52
34 35 38 41 41 38 41 48 45 33 31 28 24 27 29 30 34 41 44 46 48 48 47 45 46 46 43 45 46 47 47 50 49 49 50 49 51 54 51 43 49 43 44 55 53 52 55 54 54
36 37 37 36 37 42 37 36 35 22 12 11 21 32 26 31 39 44 44 43 39 40 44 46 50 51 52 49 49 48 52 53 54 54 53 53 53 54 58 54 59 51 54 58 53 56 54 56 54
37 38 37 37 37 43 32 36 36 22 21 26 30 37 34 37 46 48 51 53 48 43 42 45 49 52 52 54 55 52 52 55 57 56 58 58 56 57 59 59 61 61 59 59 54 54 51 57 55
37 38 42 46 44 47 42 44 39 30 36 31 38 41 38 44 48 53 56 56 52 51 50 53 55 55 55 56 57 59 58 56 58 59 61 62 62 61 61 63 64 66 67 65 63 64 61 56 58
45 44 48 47 43 45 47 42 37 37 41 44 43 44 43 46 53 58 60 56 54 57 54 53 52 53 56 57 56 61 62 62 61 62 63 64 63 64 64 66 67 68 70 70 67 65 62 59 60
28 27 34 36 37 38 38 35 34 34 39 47 52 55 54 50 49 53 57 59 58 57 55 57 57 57 60 61 60 58 61 64 66 64 65 65 65 65 66 67 68 69 70 70 69 66 66 66 61
24 28 31 31 34 36 39 33 35 38 35 38 43 45 48 55 58 58 60 55 57 59 60 62 64 62 63 65 64 62 58 57 62 67 67 64 64 64 65 66 68 68 68 66 66 67 64 66 61
26 29 33 35 37 39 43 39 34 41 38 41 50 51 53 55 49 42 55 60 63 65 65 66 64 62 62 64 66 63 60 60 57 58 64 66 65 63 62 63 63 65 66 65 64 65 65 66 62

GFSSGP_500_spd_114.txt.gz
Wind_Speed
33 32 29 26 23 23 23 26 27 22 18 17 14 24 26 26 20 21 16 14 7 5 3 3 2 2 5 6 7 7 8 9 8 8 8 9 10 11 12 12 11 11 11 11 11 10 10 10 10
34 32 30 26 24 21 23 31 28 27 25 19 20 30 30 25 21 23 21 17 11 12 10 8 7 7 8 9 9 10 11 10 9 10 10 11 11 11 12 12 12 12 12 13 13 13 13 12 12
37 34 32 28 25 21 23 26 33 31 29 27 23 32 34 31 25 26 24 23 22 20 18 17 14 12 11 11 13 12 13 13 12 11 12 13 14 13 14 14 13 13 13 14 14 15 15 14 14
40 37 34 29 26 22 24 30 37 34 30 22 32 33 32 36 29 28 29 25 26 25 23 21 18 17 15 14 14 15 15 16 16 16 14 14 13 13 14 15 15 15 14 14 16 16 17 17 15
40 39 37 31 27 28 31 37 40 37 37 27 31 33 30 28 29 27 26 24 26 28 27 25 23 21 20 19 17 17 17 17 17 18 18 17 16 17 17 18 17 17 16 16 18 19 18 19 18
39 41 38 32 30 31 31 39 40 39 37 34 35 35 39 39 34 31 25 23 26 28 29 29 27 26 25 25 24 22 21 20 19 19 19 17 17 18 19 19 20 21 21 21 21 21 22 22 21
42 42 37 36 33 34 31 35 41 46 41 41 38 39 39 37 32 28 25 23 23 26 26 26 27 27 27 27 27 25 23 23 20 18 17 19 19 18 18 20 20 21 21 21 21 22 23 24 24
40 43 41 38 35 26 30 36 42 45 36 32 43 42 38 39 38 32 23 19 17 27 27 29 30 31 30 30 29 28 26 24 23 23 22 24 24 24 25 26 24 23 25 23 22 22 22 24 24
43 40 34 37 38 29 33 36 38 39 41 39 35 36 40 40 42 37 32 29 29 34 36 37 38 37 34 33 33 31 29 29 29 28 27 27 28 28 28 28 26 26 26 27 28 27 26 25 26
44 40 32 34 35 40 43 41 36 38 42 42 43 42 44 46 44 44 42 40 34 30 31 32 30 31 32 33 34 34 34 36 35 35 34 33 31 29 28 30 31 30 30 31 30 31 30 29 30
48 42 39 37 35 38 44 46 43 44 42 44 42 43 41 41 40 40 47 45 37 33 31 33 32 31 32 31 31 32 33 37 38 38 39 40 36 34 34 35 35 36 35 35 34 35 33 31 32
47 45 46 44 44 46 47 50 50 49 47 49 48 43 40 40 43 45 43 47 42 41 38 34 35 34 33 38 34 31 32 27 36 38 44 40 41 39 40 38 41 42 41 40 40 36 36 35 34
41 40 39 40 45 50 53 55 53 50 48 49 48 47 44 43 42 43 47 48 43 41 43 43 37 36 37 36 35 34 36 33 35 32 35 38 43 43 40 46 43 42 44 43 43 38 39 36 39
36 37 39 38 40 43 47 48 49 45 46 44 42 44 42 42 43 42 44 48 45 46 45 46 47 43 37 35 39 35 41 37 36 35 37 39 43 43 47 45 42 42 41 41 42 41 42 41 40
40 40 40 40 41 43 46 44 40 36 36 42 43 43 44 44 44 44 47 47 46 46 49 47 46 45 41 36 34 37 39 37 41 36 36 40 40 42 46 43 41 40 41 41 39 38 39 38 39
34 34 35 37 37 40 43 41 37 32 40 41 42 45 45 42 41 40 42 42 42 44 44 44 43 43 42 39 36 36 35 37 40 35 40 37 37 41 44 42 40 40 41 41 38 37 38 38 39
33 33 30 24 28 28 35 36 33 34 37 37 39 40 40 38 35 35 38 39 39 38 36 39 40 41 40 40 39 39 38 36 35 34 39 43 42 44 48 46 44 42 41 42 40 41 43 43 42
28 29 26 25 28 32 32 37 35 32 34 35 38 36 35 32 32 35 36 35 35 36 38 40 42 43 43 42 42 44 43 40 38 41 43 44 45 45 47 49 46 45 44 44 45 45 46 46 46
30 32 29 29 27 35 36 38 36 37 36 37 37 37 35 33 33 33 33 37 38 40 41 42 44 45 46 44 43 44 45 45 45 46 44 45 44 46 47 49 48 46 46 47 51 48 47 47 47
33 35 35 34 36 40 37 37 37 39 40 37 37 35 31 33 35 37 36 38 40 44 45 47 50 51 48 46 49 50 48 49 50 50 49 49 47 42 44 46 44 49 50 55 49 47 47 49 49
37 37 37 39 38 42 43 40 38 38 39 39 37 30 31 37 39 38 36 37 40 44 48 50 48 44 38 35 36 39 40 39 39 40 42 44 46 43 45 47 48 53 45 49 53 49 50 48 48
34 33 34 34 39 41 41 41 41 42 42 40 37 34 34 33 30 31 35 38 40 40 40 40 39 35 32 32 33 44 45 43 41 43 44 45 46 48 48 48 48 52 55 45 47 50 47 52 50
39 38 41 40 40 40 36 45 43 41 43 39 43 42 38 38 38 36 38 41 42 41 42 42 40 39 38 37 40 43 44 47 49 48 49 49 50 52 53 54 53 54 50 42 44 52 56 47 52
43 41 41 41 42 44 38 39 42 33 35 41 39 42 41 37 38 41 43 44 42 40 39 38 37 39 40 39 39 44 46 47 49 50 52 53 54 55 56 58 59 56 55 49 50 50 46 57 58
37 39 38 39 37 39 35 37 41 27 37 38 39 42 43 33 37 39 40 44 45 45 46 44 41 40 42 43 49 48 48 48 47 48 53 55 56 58 60 60 61 62 60 55 53 55 55 56 46
34 36 38 42 41 37 34 42 37 32 35 34 38 43 38 36 36 40 43 47 49 51 51 50 48 46 46 49 50 50 50 51 52 52 52 55 57 58 60 62 63 64 65 63 58 60 58 59 59
39 41 44 46 46 42 38 32 30 32 37 39 38 42 47 41 40 47 47 49 54 57 57 56 54 51 51 56 57 56 53 55 59 61 60 60 61 61 62 63 65 65 66 67 68 66 62 59 59
26 27 36 36 36 34 31 27 24 27 30 33 39 47 51 52 47 50 53 56 57 55 56 55 55 56 62 66 60 60 61 61 60 62 63 69 69 67 66 66 67 68 69 69 68 70 69 67 64
24 23 28 28 31 34 33 26 27 29 30 32 37 39 41 46 46 52 60 63 67 56 51 54 57 63 65 63 67 67 67 66 64 63 63 67 70 72 73 71 70 70 71 72 72 72 71 69 67
25 29 30 33 34 35 38 35 36 39 39 41 43 44 43 51 49 47 44 49 57 61 58 55 58 62 64 67 70 70 69 69 69 65 64 64 63 67 69 72 73 71 71 70 70 72 69 70 68

GFSSGP_500_spd_117.txt.gz
Wind_Speed
37 33 32 30 29 32 35 29 26 22 23 18 12 9 8 10 13 14 10 11 11 7 2 4 4 4 5 5 5 6 7 9 10 9 8 9 10 10 10 11 12 12 12 13 14 14 15 16 16
39 35 33 31 31 30 34 33 29 27 28 28 21 18 19 18 19 19 17 17 11 10 13 10 8 8 9 9 8 7 7 7 8 9 10 10 11 11 13 13 13 14 15 15 16 16 16 16 17
40 38 36 33 30 26 29 36 34 32 32 31 24 24 22 23 23 23 19 19 19 16 18 20 17 12 11 11 12 12 11 11 11 11 12 12 12 13 13 13 13 14 14 15 16 17 17 18 19
43 40 37 34 29 28 30 36 38 37 38 38 29 25 25 25 29 25 22 20 21 21 20 20 20 18 16 14 14 14 14 13 13 14 13 14 15 15 14 15 15 15 16 17 18 19 19 19 19
47 43 38 34 29 29 32 35 39 41 40 38 35 28 24 25 28 31 29 25 21 24 24 24 24 23 21 20 19 16 16 16 15 15 15 14 14 15 16 17 17 18 18 19 19 19 19 21 21
49 45 41 34 30 34 30 32 37 42 42 41 38 32 31 26 26 31 30 25 23 24 23 25 27 27 26 24 23 23 22 21 20 18 17 17 16 16 17 18 18 18 19 20 20 19 19 20 21
49 48 43 39 38 35 31 32 37 41 43 44 42 41 36 30 28 28 29 32 29 29 26 26 27 26 26 25 25 24 23 23 23 23 21 19 18 19 19 19 20 20 20 20 20 19 19 19 21
47 50 48 43 41 33 34 36 35 39 42 47 46 43 43 40 35 28 21 23 26 28 26 29 29 30 30 30 29 28 27 26 26 25 24 24 24 24 23 22 21 21 21 22 23 23 24 23 22
37 51 48 45 39 36 37 37 37 39 44 45 48 46 42 41 38 31 25 21 25 28 28 31 33 33 34 35 34 29 26 26 26 27 27 29 29 28 27 27 25 27 26 26 26 27 25 26 26
43 39 42 42 37 36 38 42 42 42 42 46 46 47 46 42 41 39 34 34 34 33 35 34 34 35 33 33 33 32 29 30 28 28 29 31 31 31 31 31 31 31 32 30 29 32 32 31 29
42 35 34 41 45 49 50 50 46 44 43 43 43 44 40 39 38 35 34 36 36 36 31 32 31 29 31 31 32 31 31 32 32 32 33 33 32 33 33 35 33 34 34 33 34 34 35 34 33
39 37 40 37 39 44 45 36 39 40 39 40 37 37 39 42 41 43 42 41 37 32 34 34 36 33 34 35 35 35 32 37 36 37 36 33 34 34 34 37 38 38 39 40 39 42 41 36 34
45 42 44 41 41 41 43 45 43 44 44 47 45 45 46 44 44 45 45 46 45 43 36 38 37 37 37 36 37 35 37 33 36 32 34 34 36 35 37 39 42 42 45 44 45 46 40 36 35
44 42 45 46 46 47 49 46 47 46 48 48 47 47 46 45 45 46 48 49 48 47 43 40 40 40 37 37 38 36 37 38 38 40 39 36 37 38 39 42 42 45 45 47 48 46 42 41 41
43 42 43 44 45 46 47 48 48 44 45 47 47 48 46 45 45 45 46 48 50 47 49 47 46 45 40 38 35 35 37 36 36 36 41 39 38 40 43 47 45 48 50 47 47 45 42 41 41
40 39 37 37 40 40 42 39 40 42 42 40 42 46 47 47 47 47 48 49 50 50 50 48 45 44 43 42 37 37 35 35 35 40 40 40 40 45 43 42 43 48 48 47 47 45 41 38 41
38 37 35 32 32 37 42 45 41 42 47 49 50 48 50 50 48 47 48 48 47 46 46 45 45 41 41 39 39 36 34 34 35 38 39 42 43 44 45 45 45 49 49 48 50 48 44 44 43
31 32 32 26 34 40 44 47 46 48 51 47 48 49 51 49 47 45 43 44 42 43 44 43 42 41 41 42 40 37 38 40 41 41 43 43 43 41 43 45 50 52 49 49 49 50 48 49 47
32 33 34 28 35 40 42 46 46 47 49 48 45 48 48 46 41 38 37 38 38 40 42 42 43 42 44 44 42 39 40 42 42 41 42 44 44 45 45 46 49 57 54 50 52 51 49 49 48
32 34 34 29 36 42 41 43 44 44 46 45 44 45 45 42 34 38 40 41 40 41 43 44 45 47 47 45 42 42 43 44 47 47 48 46 47 47 48 49 50 53 48 47 52 54 49 49 46
33 35 34 32 34 39 40 40 38 38 40 43 42 41 40 34 38 39 40 43 45 44 45 47 48 49 48 45 39 35 39 40 42 42 44 47 47 47 47 47 49 52 51 48 49 60 52 42 42
33 33 34 34 35 38 41 39 36 38 41 42 41 39 35 36 38 40 41 45 46 47 47 48 49 47 43 37 34 35 37 42 46 44 43 44 45 46 47 49 50 51 52 53 53 48 48 44 44
34 34 36 38 39 38 39 41 37 38 40 41 42 41 41 44 41 39 36 36 38 39 40 40 39 40 38 37 36 36 37 41 44 46 48 50 50 51 51 53 54 55 56 56 57 52 48 46 47
35 34 36 37 37 39 38 39 41 40 39 41 46 46 47 46 39 36 35 39 41 43 42 42 42 41 38 33 32 33 36 38 39 43 48 52 53 54 55 55 55 57 58 59 58 56 53 50 50
34 35 36 38 38 38 35 35 37 36 29 36 38 41 44 46 42 37 36 41 44 44 43 41 41 40 39 38 39 37 39 42 45 47 47 48 53 56 58 59 61 60 60 60 60 57 54 53 55
32 34 36 39 39 38 37 39 34 37 34 36 39 40 41 43 42 39 38 40 42 44 44 44 44 45 48 48 48 48 47 47 49 48 48 51 52 54 57 58 60 64 64 64 63 63 59 56 56
36 37 39 40 43 43 42 39 38 35 38 38 39 46 45 45 45 43 41 43 45 46 47 47 49 50 53 55 55 54 54 54 54 58 58 55 57 60 61 62 62 61 63 66 67 67 67 65 63
36 38 39 41 42 41 39 33 25 27 32 36 36 35 36 38 42 41 40 43 46 46 50 53 53 56 55 53 56 58 60 60 62 65 65 61 62 64 69 69 69 68 68 67 69 71 71 70 70
20 23 24 26 29 31 30 28 28 30 30 32 32 33 33 36 33 38 42 42 38 45 53 59 62 63 62 64 60 57 59 63 66 69 65 64 68 75 75 74 73 72 73 74 74 74 75 75 74
21 24 27 28 29 31 34 35 37 36 34 35 36 38 39 39 46 47 51 51 55 47 47 48 50 56 57 59 60 65 65 66 65 65 67 69 72 74 74 74 73 74 74 74 74 76 77 77 77

GFSSGP_500_spd_123.txt.gz
Wind_Speed
39 37 37 36 37 37 38 34 33 27 25 24 21 16 17 16 14 11 10 8 6 6 4 3 5 7 8 7 7 6 5 4 4 5 6 6 7 8 9 10 11 12 12 12 12 12 13 13 13
41 40 38 38 38 37 37 37 38 37 28 27 24 21 18 17 12 11 14 12 7 7 7 3 3 7 8 9 9 8 7 6 6 6 5 6 7 9 10 10 11 11 11 11 12 12 12 13 13
45 43 40 40 37 36 37 41 39 37 31 27 29 25 23 20 15 11 10 10 7 5 5 8 10 10 9 9 8 9 9 7 6 8 8 8 8 9 10 10 11 11 12 13 13 13 13 13 14
49 46 43 40 35 35 37 41 42 39 34 32 31 28 22 20 16 15 11 8 7 6 8 10 13 13 12 12 12 11 11 10 9 9 11 12 12 12 13 13 13 13 13 13 13 13 13 14 14
53 50 47 38 36 34 37 40 42 41 40 37 36 35 29 23 19 17 15 13 12 12 13 12 13 15 15 15 17 17 15 14 13 14 13 13 14 15 16 15 15 15 14 14 14 14 14 13 14
56 52 48 40 37 37 39 40 41 42 44 41 36 35 32 28 22 19 17 16 12 15 18 18 17 19 22 21 20 17 15 14 15 16 16 15 15 16 16 16 17 17 17 17 18 18 19 18 18
57 56 50 44 41 41 42 41 41 44 46 44 41 36 32 28 26 23 16 17 19 15 16 20 23 24 21 19 19 19 19 20 21 20 19 19 20 20 21 21 21 21 21 21 21 22 23 22 21
58 59 53 47 45 43 45 42 40 40 47 46 41 38 34 32 31 28 23 15 15 17 18 21 22 19 20 22 23 24 24 25 25 24 23 23 23 23 23 24 24 24 24 24 24 25 25 26 25
58 61 55 51 48 46 46 43 42 41 43 45 42 40 39 37 36 33 29 29 26 20 19 21 23 24 24 25 28 27 27 27 28 27 25 25 26 26 25 24 25 25 25 27 27 27 28 28 27
64 61 56 52 50 48 49 48 46 43 41 41 41 42 40 38 39 36 33 28 21 23 25 27 28 29 30 32 32 31 29 27 26 27 27 27 28 30 31 30 29 29 28 28 29 31 31 30 32
63 58 57 53 49 50 51 53 49 46 46 45 45 42 41 38 38 39 36 32 32 30 31 30 29 30 30 30 31 31 29 30 29 31 31 32 32 29 30 31 32 32 34 32 33 34 33 34 33
58 54 57 56 56 54 53 54 50 48 50 50 48 46 43 42 41 41 37 32 32 34 32 32 32 33 33 32 32 33 31 33 34 35 35 36 36 37 37 36 36 35 37 36 36 35 35 37 38
52 52 55 52 56 58 59 59 56 52 51 52 51 46 43 41 39 37 37 35 35 35 37 35 35 37 36 36 36 36 35 35 36 38 37 36 38 41 40 39 38 36 36 37 39 40 39 39 40
42 38 51 51 48 54 55 56 57 52 50 48 46 44 42 41 42 42 38 36 38 39 39 41 38 40 39 38 37 38 36 36 38 38 39 40 40 40 40 39 39 38 40 42 42 43 43 42 44
50 29 46 42 34 31 45 53 53 49 52 49 45 43 43 43 44 40 41 41 41 44 45 46 47 42 39 37 36 39 39 39 40 38 40 40 39 39 41 42 45 42 40 41 41 41 44 43 42
36 25 27 27 29 28 28 31 38 43 40 39 38 40 42 43 42 39 41 43 45 47 49 50 48 44 39 37 39 40 42 42 40 37 38 37 43 42 37 40 38 40 43 45 45 46 47 46 46
27 28 29 35 29 27 28 26 28 29 31 32 37 38 39 41 42 45 48 49 50 50 49 49 48 43 43 44 42 40 41 42 39 38 40 40 45 45 42 45 42 45 40 43 46 47 46 45 44
34 31 29 30 29 30 32 32 33 37 38 42 44 46 46 47 43 45 50 50 47 45 46 48 49 50 48 44 43 40 38 36 36 38 40 42 43 42 41 41 43 42 44 43 46 45 46 44 45
27 27 28 29 31 33 36 37 36 38 41 44 45 44 43 39 39 43 49 47 47 46 47 47 48 49 48 45 42 41 39 39 38 40 42 43 44 45 46 46 46 44 43 46 47 48 48 48 49
29 30 30 33 35 36 37 39 39 39 41 41 40 41 41 41 41 42 44 44 45 45 42 42 44 45 45 45 42 40 40 41 42 42 43 45 46 48 48 47 48 49 49 50 51 51 51 49 50
29 29 28 29 33 37 38 39 39 36 38 39 40 39 39 39 39 38 37 33 36 38 38 39 41 42 42 42 44 44 44 44 46 45 46 47 49 50 50 51 50 51 51 51 48 47 44 44 46
25 25 25 26 31 35 36 39 38 39 37 36 37 37 36 35 36 37 38 34 35 36 37 38 41 42 43 44 45 45 45 45 46 47 47 46 48 49 47 47 48 47 45 46 45 45 46 45 45
26 26 26 26 28 30 33 35 33 33 32 31 30 31 35 36 38 39 39 39 39 40 42 44 45 45 44 44 43 41 39 37 40 41 43 42 45 47 48 50 50 50 48 47 48 47 47 48 47
28 29 28 28 29 32 33 34 34 32 32 32 33 35 37 40 40 41 41 42 43 45 46 46 46 45 46 45 43 43 40 41 43 44 44 47 49 50 51 52 52 51 49 48 46 46 46 47 48
31 30 30 30 31 33 31 33 37 34 34 35 36 37 38 40 43 45 46 46 47 48 48 47 43 42 44 46 47 47 46 47 49 47 45 48 49 51 52 53 53 52 51 50 48 46 44 49 51
28 28 28 29 30 32 32 35 38 36 36 37 38 38 39 41 43 44 44 45 46 45 44 43 44 45 46 49 51 52 52 51 52 51 49 51 53 55 55 55 54 55 54 55 55 52 52 52 52
31 32 31 33 35 35 35 34 35 34 33 34 36 38 41 44 45 45 46 47 48 47 46 45 48 49 49 50 53 54 55 57 58 58 58 58 59 58 57 57 55 55 54 57 58 58 62 60 57
31 30 30 31 32 32 34 34 36 33 34 34 35 37 39 40 41 42 41 41 44 47 49 53 55 54 54 54 53 54 57 60 61 61 60 61 62 63 64 65 64 63 60 62 61 64 65 62 58
29 30 31 31 35 35 34 32 26 25 23 25 28 30 31 31 33 35 36 37 38 39 41 43 45 48 54 58 60 62 63 65 65 66 65 65 63 65 69 70 67 63 69 68 66 65 65 67 68
30 26 25 28 26 26 22 21 19 22 25 28 31 33 34 35 37 39 40 42 44 45 46 46 47 47 49 51 54 56 59 60 61 66 69 64 65 67 73 67 67 66 65 66 68 69 70 71 70